Point Lay Lrrs Airport
PPIZ : now visible

Airfield :











YOU CAN JOIN US ON...

 
LOGIN :

Register | Disclaimer

   EN    FR    IT 

 









Legend :    VFR   Marginal VFR   IFR   Intensive IFR   Very Intensive IFR
Visi :
Ceiling :
>= 8 km
>= 3000ft
5 to 8 km
1000 to 3000 ft
1500m to 5 km
500 to 1000 ft
800 to 1500m
200 to 500 ft
< 800m
< 200 ft
Symbols :   Thunderstorms  Fog  Heavy snow  Heavy precipitations  Wind > 20 kt






- Airport Elevation : 22 ft
- IATA code : PIZ


PPIZ - Point Lay Lrrs

CURRENT METAR :
  • 222356Z AUTO 13008KT 10SM OVC038 M03/M04 A2965 RMK AO2 SLP042 60000 T10331044 11011 21039 52007 FZRANO

EXPIRED METARs :
  • 222256Z AUTO 10009KT 10SM OVC055 M03/M04 A2964 RMK AO2 SLP040 T10331044 FZRANO
  • 222156Z AUTO 13008KT 10SM BKN044 OVC055 M02/M03 A2963 RMK AO2 SNE16 SLP038 P0000 T10171028 FZRANO

TAF N/A
PAZA FIR / North America



MET'MAP, your aeronautical weather chart ! - Copyright ORBIFLY December 2007 - Disclaimer

ORBIFLY MET'MAP TEAM :

Programming & Development : Alexandra Zaïnal
Concept & original design : Baudouin d'Aumeries
Assistance for programming : Marc-Olivier Méhu
Technical & hardware support : Manuel Goepfert

Contact : metmap@orbifly.com




SOURCES & CREDITS :

   NOAA       Earth
Advisory